Regional Weather Roundup
Issued by NWS Grand Forks, ND

Home | Current Version | Previous Version | Graphics & Text | Print | Product List | Glossary On
Versions: 1 2 3 4 5 6 7 8 9 10 11 12 13 14 15 16 17 18 19 20 21 22 23 24 25 26 27 28 29 30 31 32 33 34 35 36 37 38 39 40 41 42 43 44 45 46 47 48 49 50
000
ASUS43 KFGF 302310
RWRFGF
PRAIRIE TO PINES  WEATHER ROUNDUP
NATIONAL WEATHER SERVICE EASTERN NORTH DAKOTA/GRAND FORKS ND
600 PM CDT TUE JUN 30 2015

 **SATELLITE DATA USED TO AUGMENT SKY COVER AT AUTOMATED STATIONS**
 *****  WEATHER ACROSS EASTERN NORTH DAKOTA  *****

CITY           SKY/WX    TMP DP  RH WIND       PRES   REMARKS
GRAND FORKS    CLOUDY    74  57  55 S5        29.91S
GRAND FRKS AFB PTSUNNY   73  59  62 S5        29.93R
GRAND FRKS NWS   N/A     73 N/A N/A E5          N/A
DEVILS LAKE    CLOUDY    68  59  73 E7        29.92S
FARGO          CLOUDY    73  61  65 CALM      29.92R
WAHPETON ARPT  MOCLDY    72  59  64 SW5       29.93R
$$

 ***** WEATHER ACROSS CENTRAL AND WESTERN NORTH DAKOTA  *****

CITY           SKY/WX    TMP DP  RH WIND       PRES   REMARKS
BISMARCK       PTSUNNY   72  65  78 E7        29.90F
MINOT          CLOUDY    69  64  84 CALM      29.90S HAZE
JAMESTOWN      PTSUNNY   71  61  70 E7        29.92R
MINOT AFB      PTSUNNY   71  70  99 E6        29.90R FOG
GARRISON         N/A     69  65  86 E10       29.89F
WILLISTON      MOSUNNY   78  57  48 E15G23    29.86F HAZE
DICKINSON      CLOUDY    75  65  70 SE12      29.85F
HETTINGER      MOSUNNY   77  65  66 SE10      29.88F
$$

 *****  OTHER AIRPORT OBSERVATIONS IN OUR AREA  *****

CITY           SKY/WX    TMP DP  RH WIND       PRES   REMARKS
WALHALLA       FAIR      73  59  60 MISG      29.92S
GRAFTON AIRPOR FAIR      75  59  57 S6        29.92S
VALLEY CITY AR FAIR      70  59  68 E8        29.94R
CANDO          FAIR      68  61  77 SE8       29.93S
CAVALIER APRT  FAIR      73  59  60 SW6       29.91F
GWINNER        NOT AVBL
SHEYENNE NWR     N/A     72  61  67 SE6       29.95S
ROLLA          FAIR      68  61  77 SE7       29.94F
 ***** THE ABOVE OBSERVATIONS ARE NON NWS ARE NOT QUALITY
       CONTROLLED AND MAY MIS-REPORT RAIN FOR SNOW...
$$

  *****  WEATHER ACROSS NORTHERN MINNESOTA  *****

CITY           SKY/WX    TMP DP  RH WIND       PRES   REMARKS
FLAG ISLAND    PTSUNNY   68  52  56 SE3       29.93F
WARROAD        PTSUNNY   70  57  64 E5        29.95S
ROSEAU         CLOUDY    72  59  64 E7        29.93F
HALLOCK        MOSUNNY   75  59  57 CALM      29.91S
THF RVR FALLS  MOSUNNY   75  55  50 CALM      29.93S
BAUDETTE       MOSUNNY   71  55  56 N6        29.93F
WASKISH        PTSUNNY   73  55  53 CALM      29.93F
CROOKSTON      MOSUNNY   73  55  53 CALM      29.93S
$$
  *****  WEATHER ACROSS CENTRAL AND WEST MINNESOTA  *****

CITY           SKY/WX    TMP DP  RH WIND       PRES   REMARKS
FOSSTON        MOSUNNY   77  57  50 CALM      29.94S
BEMIDJI        PTSUNNY   74  50  43 CALM      29.93S
PARK RAPIDS    MOSUNNY   76  53  44 VRB5      29.93R
ELBOW LAKE     FAIR      72  59  64 CALM      29.92R
WADENA           N/A     73  55  53 NE5       29.92S
DETROIT LAKES  PTSUNNY   73  54  49 E3        29.94S
MOORHEAD       CLOUDY    73  63  68 N3        29.93R
FERGUS FALLS   PTSUNNY   73  57  56 CALM      29.91S
MORRIS MN      MOSUNNY   73  59  60 S5        29.91S
STAPLES        PTSUNNY   73  54  49 CALM      29.92S
$$
  *****  WEATHER ELSEWHERE ACROSS MINNESOTA  *****

CITY           SKY/WX    TMP DP  RH WIND       PRES   REMARKS
DULUTH         MOSUNNY   62  45  53 SE10      29.96F
INTRNTL FALLS  MOSUNNY   71  51  49 NE7       29.95F
ELY            MOSUNNY   70  43  37 CALM      29.95S
CLOQUET        MOSUNNY   63  46  55 E7        29.95F
WHEATON        PTSUNNY   70  61  73 CALM      29.93S
BRAINERD       MOSUNNY   76  53  44 N7        29.93F
HIBBING        MOSUNNY   72  50  45 VRB5      29.93F
ALEXANDRIA     CLOUDY    74  57  55 SE6       29.93S
SAINT CLOUD    PTSUNNY   74  57  55 E3        29.91S
MINNEAPOLIS    PTSUNNY   74  54  49 NE9       29.90F
$$

  *****  WEATHER ACROSS SOUTH DAKOTA  *****

CITY           SKY/WX    TMP DP  RH WIND       PRES   REMARKS
SIOUX FALLS    CLOUDY    72  67  84 W3        29.89F HAZE
BROOKINGS      CLOUDY    73  61  64 E9        29.92S
WATERTOWN      CLOUDY    71  61  70 E8        29.91S
HURON          CLOUDY    71  69  93 CALM      29.88R FOG
SISSETON         N/A     73  58  59 SE9       29.90S
ABERDEEN       PTSUNNY   77  64  64 SW5       29.88F
MITCHELL       LGT RAIN  72  70  93 S6        29.88F FOG
PIERRE         CLOUDY    76  67  73 E13       29.85F
MOBRIDGE       CLOUDY    75  65  70 E10       29.85S
RAPID CITY     MOSUNNY   83  67  58 NE8       29.90S
$$

  *****  SOME WEATHER IN NEARBY STATES *****

CITY           SKY/WX    TMP DP  RH WIND       PRES   REMARKS
GLASGOW MT     NOT AVBL
GREAT FALLS MT SUNNY     92  39  15 N16G23    29.96S
CHEYENNE WY    PTSUNNY   80  49  33 SW18G24   30.13S
SCOTTSBLUFF NE PTSUNNY   96  53  23 W8        29.92F HX  93
OMAHA NE       CLOUDY    75  64  68 SE3       29.88F
DES MOINES IA  CLOUDY    79  63  57 NW7       29.89S
DAVENPORT IA   SUNNY     79  63  57 N8        29.86R
CHICAGO IL     MOSUNNY   68  58  70 NE14      29.84R
EAU CLAIRE WI  PTSUNNY   73  50  44 N8        29.91R
LA CROSSE WI   MOSUNNY   76  52  43 N13       29.88S
$$

  *****  SOME NATIONAL WEATHER *****

CITY           SKY/WX    TMP DP  RH WIND       PRES   REMARKS
LA GUARDIA NY  CLOUDY    76  64  66 S16G24    29.88R
RALEIGH NC     CLOUDY    86  67  52 S13G18    29.84F
ATLANTA GA     MOSUNNY   84  66  54 SW9       29.95F
NEW ORLEANS LA CLOUDY    81  69  67 NW18G26   30.07S
OKLAHOMA CITY  MOSUNNY   93  67  42 S6        29.93F HX  96
ALBUQUERQUE NM MOSUNNY   91  46  21 VRB7      30.09F
SALT LAKE CITY MOSUNNY  100  52  19 N12       29.97F HX  97
LOS ANGELES CA PTSUNNY   74  63  68 SW8       29.95R
BOISE ID       SUNNY    102  40  12 N14       29.92F HX  97
SEATTLE WA     MOSUNNY   85  56  37 NW6       30.07F
$$

*** WEATHER ACROSS MANITOBA...SASKATCHEWAN AND ONTARIO ***
                ***ONTARIO***

CITY           SKY/WX    TMP DP  RH WIND       PRES   REMARKS
GERALDTON      PTSUNNY   63  39  42 NE12      29.96S
THUNDER BAY    PTSUNNY   66  45  45 E8        29.94F
SIOUX LOOKOUT  PTSUNNY   66  45  45 VRB2      29.97S
TORONTO        PTSUNNY   64  59  82 NE5       29.76S
BIG TROUT LK   SUNNY     64  39  39 S3        29.95F
PICKLE LAKE    MOSUNNY   66  37  34 NE5       29.95F
DRYDEN         PTSUNNY   66  50  55 VRB3      29.97S
KENORA         CLOUDY    70  52  52 S5        29.96F
$$
                *** MANITOBA***

CITY           SKY/WX    TMP DP  RH WIND       PRES   REMARKS
BRANDON        CLOUDY    73  63  68 E10       29.92F
DAUPHIN        SUNNY     72  61  68 SE6       29.92F
ISLAND LAKE    NOT AVBL
PILOT MOUND      N/A    N/A N/A N/A SE6         N/A
THE PAS        CLOUDY    79  55  44 SW8       29.86S
THOMPSON       MOSUNNY   68  55  64 SW9       29.88F
WINNIPEG       PTSUNNY   73  61  64 NW6       29.92S
LYNN LAKE        N/A    N/A N/A N/A MISG        N/A
CHURCHILL      MOSUNNY   64  39  39 E12G18    29.88F
GILLAM         PTSUNNY   66  50  55 S5        29.88F
$$
                ***SASKATCHEWAN***

CITY           SKY/WX    TMP DP  RH WIND       PRES   REMARKS
ESTEVAN        TSTM      68  63  83 CALM      29.92R SMOKE
KINDERSLEY     MOSUNNY   70  57  64 NE10      29.97S SMOKE
LLOYDMINSTER   CLOUDY    72  59  64 W8        29.98S
PRINCE ALBERT    N/A     73  64  73 SW5       29.88F SMOKE
REGINA         CLOUDY    64  59  82 E3        29.94F SMOKE
YORKTON        SUNNY     72  59  64 SE8       29.92F
N. BATTLEFORD  NOT AVBL
LA RONGE       SMOKE     79  59  50 VRB6      29.83F VSB 1
SASKATOON        N/A     70  59  68 NW6       29.94S SMOKE
SWIFT CURRENT  PTSUNNY   73  57  56 E22G28    29.91R HAZE
$$
NOTE: THESE ARE AUTOMATED STATIONS WITH LIMITED QUALITY CONTROL
      "FAIR" INDICATES FEW OR NO CLOUDS BELOW 12,000 FEET WITH NO
      SIGNIFICANT WEATHER AND/OR OBSTRUCTIONS TO VISIBILITY.
      SKY/WX - SKY CONDITION AND SIGNIFICANT WEATHER.
      TMP - AIR TEMPERATURE.    DP   - DEWPOINT TEMPERATURE.
      RH  - RELATIVE HUMIDITY.  PRES - PRESSURE.
      HX  - HEAT INDEX.         WCI  - WIND CHILL INDEX.
$



USA.gov is the U.S. government's official web portal to all federal, state and local government web resources and services.